Vorticity
nan nan nan nan nan nan nan nan nan nan nan nan nan nan nan nan nan nan nan nan nan nan nan nan nan nan nan nan nan nan nan nan nan nan nan nan nan nan nan nan nan nan nan nan
nan 24 15 9 7 -1 -2 9 11 12 9 6 8 13 9 6 9 5 3 8 6 9 9 9 11 10 10 12 8 11 14 11 9 13 16 13 4 6 7 5 13 8 5 nan
nan 28 26 7 7 -3 -2 7 8 10 10 13 12 8 13 7 3 9 7 8 7 8 9 5 6 9 9 9 8 6 7 7 6 3 -1 3 6 7 8 11 9 10 9 nan
nan 24 23 8 10 -7 -4 9 12 11 10 14 9 8 11 9 4 7 10 10 12 7 8 10 6 8 9 11 7 -1 5 5 6 1 4 6 9 9 8 5 2 4 6 nan
nan 20 17 11 10 -4 -6 8 9 8 15 19 9 8 10 11 7 7 9 7 11 10 8 11 12 15 13 5 10 13 4 7 9 8 12 10 13 19 15 12 9 7 8 nan
nan 18 19 14 8 -5 -4 8 7 8 15 14 10 12 5 7 13 6 10 10 8 9 14 8 11 12 11 7 6 7 6 12 12 10 8 12 20 13 11 12 13 15 11 nan
nan 10 21 21 10 -7 -8 9 10 10 12 11 8 10 15 11 9 9 7 10 13 10 8 11 11 10 9 7 7 7 9 7 9 15 14 10 8 5 14 21 12 10 8 nan
nan 14 19 18 8 -4 -6 7 9 10 13 11 11 9 12 16 8 12 9 9 9 4 4 12 14 17 16 18 17 11 10 9 10 14 8 7 9 18 25 16 13 15 6 nan
nan 17 16 18 10 -1 -4 5 9 11 15 22 16 10 7 8 10 10 9 4 8 8 10 11 10 6 9 15 21 24 12 9 3 7 10 12 10 4 12 15 20 11 14 nan
nan 18 15 17 10 1 -4 6 10 10 14 13 16 19 16 11 7 10 19 19 12 7 6 8 9 11 11 8 5 16 19 12 9 5 4 5 5 9 14 11 11 6 10 nan
nan 18 18 18 10 2 -6 5 12 8 7 8 13 13 12 12 16 10 11 12 15 17 9 8 10 12 17 16 15 12 12 8 14 11 10 16 14 18 4 13 9 7 12 nan
nan 29 27 16 12 6 -7 -1 11 8 8 4 6 8 7 4 10 15 11 11 12 11 9 9 10 10 11 13 14 13 15 8 9 9 4 4 22 22 9 9 9 10 15 nan
nan 38 17 13 11 10 -5 -5 10 8 10 9 13 11 9 8 5 5 5 5 10 9 4 8 13 11 10 12 11 16 11 7 7 7 9 7 15 3 11 11 11 14 16 nan
nan 15 13 12 11 14 4 -2 5 7 8 12 13 16 14 11 12 8 4 5 2 5 12 11 10 8 9 11 8 13 12 14 10 7 7 12 10 15 18 11 10 13 15 nan
nan 10 10 10 12 8 5 6 7 8 8 11 6 14 20 19 15 13 10 11 5 6 11 11 8 8 12 12 12 9 5 12 12 10 20 12 9 14 13 13 12 13 12 nan
nan 10 9 10 9 0 3 10 12 16 11 10 10 13 24 20 12 13 13 11 14 11 10 11 10 10 12 12 11 9 4 4 13 21 15 13 14 12 15 15 13 15 11 nan
nan 10 12 12 3 0 7 10 18 17 8 9 11 12 12 13 19 14 15 14 13 14 11 11 11 14 11 9 8 7 11 14 15 14 9 12 7 13 16 15 16 13 12 nan
nan 10 11 4 0 4 7 14 17 9 9 10 10 13 12 11 13 10 11 14 12 13 9 11 12 12 10 10 10 8 15 15 11 11 11 10 15 15 14 14 15 10 11 nan
nan 6 -1 -4 3 13 16 10 7 8 12 12 10 9 11 10 10 11 12 11 11 11 11 14 11 9 9 13 11 9 11 11 11 12 15 13 15 14 14 13 10 10 9 nan
nan -5 3 11 17 13 5 3 11 12 8 10 9 10 12 11 10 9 10 12 11 11 13 9 10 12 12 9 12 11 9 9 15 14 14 13 13 14 13 11 11 12 11 nan
nan 12 12 17 12 2 7 10 12 10 10 13 14 15 11 11 10 10 11 11 11 12 15 11 9 10 12 8 9 12 14 16 16 12 9 17 18 14 12 11 11 13 13 nan
nan 10 10 10 12 11 11 12 12 9 15 13 10 13 13 13 11 11 10 12 12 15 12 9 12 9 6 9 11 13 16 19 14 13 11 14 20 19 14 14 13 14 12 nan
nan 8 13 11 13 10 12 13 9 12 14 11 13 11 11 12 9 11 13 13 10 10 10 10 10 7 6 10 12 15 13 14 15 9 11 16 15 16 19 14 13 15 12 nan
nan 14 9 10 10 11 9 7 11 15 17 16 9 9 11 13 12 9 14 11 12 10 11 9 5 7 10 11 13 16 11 10 12 11 11 13 13 12 15 15 15 12 9 nan
nan 11 11 10 7 12 11 12 13 11 12 10 10 9 11 11 12 11 12 12 12 11 11 11 8 9 11 11 12 13 12 11 12 14 14 11 11 12 11 11 12 12 12 nan
nan 12 13 12 13 13 10 11 12 12 11 10 11 12 12 11 11 14 11 11 10 13 12 10 10 10 12 12 14 12 11 13 13 14 14 12 13 12 11 11 10 11 12 nan
nan nan nan nan nan nan nan nan nan nan nan nan nan nan nan nan nan nan nan nan nan nan nan nan nan nan nan nan nan nan nan nan nan nan nan nan nan nan nan nan nan nan nan nan
CAPE
7 68 29 17 9 25 67 52 50 63 107 58 21 20 0 0 0 0 0 0 0 0 0 0 0 0 0 0 0 0 0 0 0 0 0 0 0 0 0 34 13 34 93 15
0 66 34 27 28 36 57 59 20 64 116 32 18 0 0 0 0 0 0 0 0 0 0 0 0 0 0 0 0 0 0 0 0 0 0 0 0 0 1 26 55 19 75 2
1 3 5 13 45 70 53 74 11 69 73 6 1 3 0 0 0 0 0 0 0 0 0 0 0 0 0 0 0 0 0 0 0 0 0 0 0 0 0 7 59 61 55 64
35 0 29 14 36 71 55 63 42 6 26 41 9 15 4 4 10 0 0 0 0 0 0 0 0 0 0 0 0 0 0 0 0 0 0 0 0 0 0 0 0 19 2 20
57 1 56 40 44 73 36 58 49 4 0 0 1 11 0 17 19 2 0 0 0 0 0 0 0 3 9 3 10 22 11 6 11 0 8 6 2 0 12 5 0 3 3 4
71 6 93 46 59 73 83 67 7 38 0 36 11 5 0 0 13 20 0 1 0 0 1 13 13 0 0 0 0 3 9 31 58 2 12 32 2 37 9 17 27 98 64 178
52 36 4 49 66 52 69 94 55 62 20 9 3 0 0 8 16 14 3 0 0 2 17 0 0 0 0 0 1 2 9 23 45 40 45 21 0 0 5 32 115 172 149 159
60 62 1 42 43 57 73 121 100 66 81 1 1 37 41 50 15 10 1 9 0 7 8 5 1 0 0 0 0 2 23 41 43 50 54 0 0 0 70 47 114 32 130 90
22 66 18 51 38 43 106 154 218 234 95 63 3 15 18 31 46 21 4 0 0 6 21 28 13 12 10 18 15 1 13 41 54 44 27 11 0 43 43 126 178 145 75 53
7 71 71 72 44 40 118 238 213 167 142 78 48 42 50 16 41 19 30 28 19 58 46 25 21 19 8 26 35 21 34 30 28 45 38 6 0 17 92 80 160 64 2 36
43 70 74 73 54 43 99 197 160 110 116 53 31 43 35 33 38 37 29 102 55 17 69 47 17 23 35 37 44 31 38 15 76 46 43 22 0 23 25 248 59 0 1 97
55 58 70 47 43 45 78 131 138 96 107 36 4 0 0 2 11 89 57 65 2 6 23 18 50 47 86 44 61 42 85 45 134 45 147 71 52 15 35 2 0 0 0 0
18 27 36 47 31 48 91 140 192 101 46 4 1 0 0 0 0 24 6 22 15 28 45 78 86 66 108 90 81 101 91 84 106 82 164 132 176 82 33 0 0 0 0 0
29 41 47 32 67 74 83 116 162 100 24 29 0 0 0 0 0 0 5 5 21 21 48 46 37 27 70 60 67 156 132 37 144 156 171 196 93 34 15 0 0 0 0 0
40 47 33 61 73 72 115 223 198 244 50 34 5 8 2 15 7 1 3 16 39 96 57 26 50 18 32 31 80 45 58 47 222 183 241 180 173 45 12 0 0 0 0 0
39 41 44 50 53 48 79 40 59 121 69 16 5 6 12 17 32 16 24 47 55 83 24 3 20 8 24 39 11 0 18 32 196 138 53 167 100 9 1 1 0 0 0 0
19 17 22 36 37 31 5 24 33 61 35 23 7 3 3 17 30 82 73 75 45 67 1 3 10 21 28 11 10 0 0 7 69 31 0 0 0 0 0 0 0 0 0 0
28 33 34 33 24 7 12 38 8 36 37 39 53 32 96 3 12 24 4 5 5 4 4 6 18 31 15 20 0 14 17 17 2 0 0 0 0 0 0 0 0 0 0 0
22 17 26 28 23 7 37 2 14 23 26 48 4 14 93 6 3 3 3 6 9 9 7 25 46 73 23 0 10 1 0 0 8 1 0 0 0 0 0 0 0 0 0 0
17 9 2 1 5 20 5 9 4 10 12 15 16 40 52 9 16 13 10 6 1 31 39 41 51 30 12 9 0 0 0 0 0 0 0 0 0 0 0 0 0 0 0 0
8 20 2 9 10 38 17 18 35 18 19 12 8 0 31 8 23 6 5 14 17 121 120 32 28 15 0 0 0 0 0 0 1 1 0 0 0 0 0 0 0 0 0 0
17 9 4 1 5 23 41 69 25 24 8 8 11 35 35 10 4 4 9 19 12 8 20 35 2 2 0 0 0 2 2 1 1 0 0 0 0 0 0 0 0 0 0 0
4 5 3 23 15 53 14 25 27 57 22 5 7 10 6 9 9 7 30 12 2 14 50 4 6 1 0 2 1 0 1 0 1 0 0 0 0 0 0 0 0 0 0 0
3 12 15 14 14 8 36 78 11 9 60 20 34 21 41 8 22 9 15 12 14 14 10 8 6 3 3 2 0 1 0 0 0 3 0 0 0 0 0 0 0 0 0 0
24 18 39 9 11 9 10 9 16 17 23 1 13 23 26 33 3 22 9 2 10 2 11 6 2 2 4 3 2 1 2 0 0 0 0 1 0 0 0 0 0 0 0 0
14 11 11 17 19 37 34 21 11 11 7 13 38 10 26 14 22 7 10 4 8 7 2 5 1 1 4 4 7 4 1 2 0 1 1 0 0 0 1 0 0 0 0 0
10 35 20 17 41 16 10 2 2 19 19 29 10 30 21 14 22 4 3 7 7 5 4 4 2 3 4 5 3 2 2 1 0 1 1 0 0 0 0 0 0 0 0 0